Location: ????????
(48.4751°N, 37.6926°E)
Time: 02:39:20
(UTC+00:00)

SJ 16-02 - Pass Details

Date: 20 January 2021
Orbit: 607 x 615 km, 75.0° (Epoch: 24 February)

Event Time Altitude Azimuth Distance (km) Brightness Sun altitude
Rises 15:33:46 0° 175° (S) 2,865 4.9 -13.8°
Reaches altitude 10° 15:36:09 10° 166° (SSE) 1,964 3.9 -14.1°
Maximum altitude 15:40:06 34° 102° (ESE) 1,021 2.0 -14.8°
Enters shadow 15:41:49 25° 60° (ENE) 1,259 2.4 -15.1°
